ECHO 1 DEB (METAL OBJ), 51

Orbit data source: Space-Track

ECHO 1 DEB (METAL OBJ), 51 is space debris in LEO originally from a launch on Fri, 12 Aug 1960 UTC launched from the Air Force Eastern Test Range (AFETR). Debris objects in space refer to the collection of defunct objects orbiting the Earth. Examples of debris include non-operational satellites, rocket bodies, and fragments generated from explosions, collisions, or faulty payload assembly.

Loading next visibility...
Identifier
51, 1960-009C
Orbit
LEO
Country
Flag of USUS
Related business
Manufacturer
Kaiser-Fleetwings
Mission
Spacecraft
Bus & Motor
ECHO CANISTER, Unknown motor
Mass
5 kg wet, 5 kg dry
Launch date (UTC)
1960-08-12 (66 years ago)
Launch vehicle
Unknown
Launch site
Air Force Eastern Test Range (AFETR)
Object type
Payload
Rocket body
Debris
Shape & HBR
DOME, 1.0 m
Radar Cross Section
Medium (>0.1 m² and <1 m²)

Expand to show TLE details & history
Last TLE update: 13 hours ago

TLE from 13 hours ago
0 ECHO 1 DEB (METAL OBJ)
1    51U 60009C   26253.42079350  .00000026  00000-0  10825-2 0  9995
2    51  47.2111 145.6113 0108504  89.4320 271.8900 12.18384555941563
Epoch: 2026-09-10T10:05Z
TLE epoch observation values (Epoch: 2026-09-10T10:05:56.558Z)
Latitude
-0.00001°
Longitude
4.66688°
Altitude
1,597.881 km
Speed
7.072 km/s
True Right ascension
09h 42m 26s
True Declination
0° 00' 00"
Sunlit
Object was in daylight at epoch
Visualization orbit readout
Latitude
Unknown
Longitude
Unknown
Altitude
Unknown
Speed
Unknown
Apparent Right ascension
Unknown
Apparent Declination
Unknown
Sunlit
N/A
Visualization observer readout
Local Sidereal Time
15:25:42
Azimuth
Unknown
Elevation
Unknown
Doppler factor
Unknown
Orbital elements
Apogee altitude
1,687.224 km
Perigee altitude
1,514.078 km
Semi-major axis
7,978.788 km
Eccentricity
0.01085
Inclination
47.2111°
RAAN
145.6113°
Arg. of periapsis
89.432°
True anomaly
270.64685°
Mean anomaly
271.89°
Eccentric anomaly
271.26847°
Mean motion
3.04535 °/min
Orbital period
118.21 mins
BSTAR
0.0010825
Loading maneuver chart data...
Computing Atmospheric mass density...
Loading historical data...
Loading historical data...
Loading historical data...
Loading historical data...
Loading historical data...
Loading historical data...
Loading historical data...
Other satellites on launch #9 in the year 1960 (1960-08-12 UTC)

Documentation

Showing up to 5 results
|